STARLINK-1392, 45677

Orbit data source: Space-Track

STARLINK-1392, 45677 is a payload satellite owned by SpaceX/Seattle (US) in LEO that was launched on Thu, 04 Jun 2020 UTC via an FALCON 9 launch vehicle from the Air Force Eastern Test Range (AFETR). Payload-class satellites include a variety of spacecraft equipped with specific instruments for various scientific and technological missions. These include communications satellites like Starlink; space stations such as the ISS; scientific satellites like the Hubble; Earth observation satellites from companies like Planet Labs, Umbra, and HawkEye 360; GPS; miniature CubeSats for education and research; and military/defense satellites.

Loading next visibility...
Identifier
45677, 2020-035W
Orbit
LEO
Country
Flag of USUS
Related business
Manufacturer
SpaceX/Seattle
Mission
Operational Commercial Communications
Bus & Motor
STARLINK, Unknown motor
Mass
260 kg wet, ~248 kg dry
Launch date (UTC)
2020-06-04 (5 years ago)
Launch vehicle
FALCON 9
Launch site
Air Force Eastern Test Range (AFETR)
Object type
Payload
Rocket body
Debris
Shape & HBR
Box + 1 Pan, 10.1 m
Radar Cross Section
13.562 m², Large (>1 m²)

Expand to show TLE details & history
Last TLE update: 1 day ago

TLE from 1 day ago
0 STARLINK-1392
1 45677U 20035W   25286.95297468 -.00002123  00000-0 -12373-3 0  9991
2 45677  53.0557   5.3452 0001603  93.6859 266.4313 15.06388246296617
Epoch: 2025-10-13T22:52Z
TLE epoch observation values (Epoch: 2025-10-13T22:52:17.012Z)
Latitude
-0.00004°
Longitude
-0.47408°
Altitude
548.196 km
Speed
7.589 km/s
True Right ascension
00h 21m 22s
True Declination
0° 00' 00"
Sunlit
Object was in full shadow at epoch
Visualization orbit readout
Latitude
Unknown
Longitude
Unknown
Altitude
Unknown
Speed
Unknown
Apparent Right ascension
Unknown
Apparent Declination
Unknown
Sunlit
N/A
Visualization observer readout
Local Sidereal Time
19:05:10
Azimuth
Unknown
Elevation
Unknown
Doppler factor
Unknown
Orbital elements
Apogee altitude
548.628 km
Perigee altitude
546.408 km
Semi-major axis
6,925.655 km
Eccentricity
0.00016
Inclination
53.0557°
RAAN
5.3452°
Arg. of periapsis
93.6859°
True anomaly
266.41297°
Mean anomaly
266.4313°
Eccentric anomaly
266.42213°
Mean motion
3.76575 °/min
Orbital period
95.6 mins
BSTAR
-0.00012373
Loading maneuver chart data...
Computing Atmospheric mass density...
Loading historical data...
Loading historical data...
Loading historical data...
Loading historical data...
Loading historical data...
Loading historical data...
Loading historical data...

Documentation

Showing up to 5 results
|